Location: Cheching
(60.0667°N, 164.2167°W)
Time: 13:22:01
(UTC+00:00)

STRAND 1 - Pass Details

Date: 20 January 2021
Orbit: 768 x 780 km, 98.4° (Epoch: 04 March)

Event Time Altitude Azimuth Distance (km) Brightness Sun altitude
Rises 14:42:46 0° 101° (E) 3,248 ? -35.0°
Reaches altitude 10° 14:45:42 10° 84° (E) 2,326 ? -34.7°
Maximum altitude 14:49:07 18° 41° (NE) 1,817 ? -34.3°
Drops below altitude 10° 14:52:33 10° 359° (N) 2,339 ? -33.9°
Enters shadow 14:53:12 - 355° (N) 2,519 ? -33.8°
